MIDORI II (ADEOS-II) (27597 NORAD) Tracking and Keplerian Element Data

This shows tracking and keplerian element data for the satellite.

Feedback or suggestion? Click here.




ElementValue
Catalog27597
NameMIDORI II (ADEOS-II)
Epoch Orbit81187
Epoch Day198.91377152
Epoch Year2018
RAAN157.9127
Inclination98.4231
Eccentricity4.44E-05
Argument of Perigee128.1102
Mean Anonmoly232.0119
Mean Motion14.27356852
Decay Rate1.2E-07
L11 27597U 02056A 18198.91377152 .00000012 00000-0 22064-4 0 9996
L22 27597 98.4231 157.9127 0000444 128.1102 232.0119 14.27356852811874

Live tracking and technical data element details for MIDORI II (ADEOS-II) (NORAD 27597). MIDORI II (ADEOS-II) can be tracked NOW for your location showing map with azimuth and elevation plus other details from your city location.

Track the satellite on the map from your city or location and see movement details for azimuth, elevation, latitude, longitude, range, height, and movement on the map or in text.







IsCatalogInMostPopularTable: catalog: 27597, numindb: 22
Update: records affected: 1



GetName: 27597 MIDORI II (ADEOS-II)

Hit Count: updated at: Fri, 20 Jul 2018 20:36:16 GMT